Location: Huesca
(42.1318°N, 0.4078°W)
Time: 11:02:28
(UTC+02:00)

deb Explorer IX - Visible Passes

Search period start: 15 July 2024 00:00
Search period end: 25 July 2024 00:00
Orbit: 511 x 879 km, 38.7° (Epoch: 15 July)

Date Brightness Start Highest point End Pass type
(mag) Time Alt. Az. Time Alt. Az. Time Alt. Az.
15 Jul ? 04:09:44 26° SE 04:09:44 26° SE 04:11:48 10° ESE visible
15 Jul ? 05:48:32 10° WSW 05:51:10 16° SSW 05:53:42 10° S visible
15 Jul ? 23:33:44 10° SSW 23:36:18 21° S 23:36:18 21° S visible
16 Jul ? 04:50:45 20° S 04:50:45 20° S 04:52:32 10° SSE visible
16 Jul ? 22:32:05 10° SSW 22:35:52 19° SSE 22:38:47 12° ESE visible
17 Jul ? 00:14:23 10° SW 00:17:31 30° SSW 00:17:31 30° SSW visible
17 Jul ? 23:12:00 10° SW 23:17:01 34° SSE 23:19:21 23° ESE visible
18 Jul ? 00:55:38 10° WSW 00:58:02 26° WSW 00:58:02 26° WSW visible
18 Jul ? 22:09:52 10° SSW 22:14:33 26° SSE 22:18:56 10° E visible
18 Jul ? 23:52:55 10° WSW 23:58:18 52° S 23:59:18 44° SE visible
19 Jul ? 01:37:04 10° W 01:37:57 15° W 01:37:57 15° W visible
19 Jul ? 22:50:16 10° SW 22:55:40 43° SSE 23:00:11 12° E visible
20 Jul ? 00:34:12 10° WSW 00:38:49 54° SW 00:38:49 54° SW visible
20 Jul ? 23:31:18 10° WSW 23:36:53 58° S 23:39:25 29° ESE visible
21 Jul ? 01:15:35 10° W 01:18:01 25° WSW 01:18:01 25° WSW visible
21 Jul ? 22:28:26 10° WSW 22:34:06 52° SSE 22:39:20 10° E visible
22 Jul ? 00:12:34 10° W 00:18:05 60° S 00:18:26 59° SSE visible
22 Jul ? 23:09:31 10° WSW 23:15:15 62° S 23:18:41 22° ESE visible
23 Jul ? 00:53:54 10° W 00:57:16 33° WSW 00:57:16 33° WSW visible
23 Jul ? 22:06:29 10° WSW 22:12:20 59° S 22:17:44 10° E visible
23 Jul ? 23:50:44 10° W 23:56:21 57° S 23:57:25 48° SSE visible
24 Jul ? 01:35:24 10° W 01:36:00 13° W 01:36:00 13° W visible
24 Jul ? 22:47:33 10° W 22:53:23 63° S 22:57:29 18° ESE visible
